Location: Unspecified
(64.9000°N, 0.0000°E)
Time: 12:54:44
(UTC+00:00)

Altair - Pass Details

Date: 17 June 2019
Orbit: 1501 x 1683 km, 47.2° (Epoch: 20 July)

Event Time Altitude Azimuth Distance (km) Brightness Sun altitude
Rises 01:04:42 0° 254° (WSW) 4,836 9.8 -0.9°
Reaches altitude 10° 01:08:24 10° 243° (WSW) 3,876 9.2 -0.8°
Maximum altitude 01:16:06 27° 192° (SSW) 2,817 8.4 -0.5°
Drops below altitude 10° 01:23:56 10° 141° (SE) 3,942 9.4 -0.3°
Sets 01:27:45 0° 130° (SE) 4,934 9.9 -0.1°
